{"data":{"norad_id":59752,"epoch":"2026-05-25T04:55:56.948736Z","epoch_age_seconds":56455,"freshness":"FRESH","line1":"1 59752U 24090Y   26145.20552024 -.00000351  00000+0 -32375-5 0  9996","line2":"2 59752  43.0004 111.2536 0001251 264.4064  95.6645 15.27564262115131","mean_motion":15.27564262,"eccentricity":0.0001251,"inclination_deg":43.0004,"raan_deg":111.2536,"arg_perigee_deg":264.4064,"mean_anomaly_deg":95.6645,"bstar":-3.2375e-6,"rev_number":11513,"period_min":94.267719913442,"perigee_km":482.23788140193,"apogee_km":483.954561954,"semimajor_km":6861.233221678,"source":"CELESTRAK","updated_at":"2026-05-25T13:38:19.055400Z"}}